Zurück zum Katalog

STARLINK-36438

AktivKommunikationVLEO
NORAD 67625·PAYLOAD·🇺🇸 United States

Gestartet Jan 30, 2026 von Cape Canaveral Space Force Station

Loading…

Nächste Überflüge (nächste 24 Stunden)

TLE

AktuellSource: CelesTrak SupGP

Epoche: Sep 14, 2026, 22:36 UTC

1 67625C 26020J   26257.94215278 -.00064484  00000+0 -23355-2 0  2570
2 67625  42.9995 151.0352 0001459 268.4844 203.5268 15.27611954    16

Verfolge STARLINK-36438 in Echtzeit mit AllMySat

Download on the App Store